Location: Observatoire
(46.1952°N, 5.3391°E)
Time: 04:40:43
(UTC+01:00)

Altair - Pass Details

Date: 22 February 2026
Orbit: 1502 x 1682 km, 47.2° (Epoch: 7 March)

Event Time Altitude Azimuth Distance (km) Brightness Sun altitude
Rises 12:38:55 0° 283° (WNW) 4,761 9.9 33.6°
Reaches altitude 10° 12:45:25 10° 252° (WSW) 3,821 9.9 33.7°
Maximum altitude 12:47:38 11° 238° (WSW) 3,758 10.0 33.7°
Drops below altitude 10° 12:49:53 10° 225° (SW) 3,849 10.3 33.7°
Sets 12:56:37 0° 193° (SSW) 4,873 11.2 33.7°
